Theta_e
315 315 315 315 315 315 315 315 315 315 315 315 315 315 315 315 315 315 314 314 314 314 314 314 314 314 314 314 315 316 316 316 315 316 317 318 317 317 316 316 315 315
315 314 315 315 315 315 315 315 315 316 316 315 315 315 315 315 315 314 314 314 314 314 314 313 313 313 313 313 313 313 313 313 313 314 314 315 315 315 315 316 316 315
315 315 315 315 315 315 315 315 315 316 315 315 315 315 315 315 314 315 314 314 314 314 314 314 313 313 313 312 312 312 312 312 311 311 312 312 312 312 312 312 312 313
315 315 315 314 315 315 315 315 315 315 315 315 315 314 315 315 314 314 314 314 314 314 314 313 313 313 313 312 312 312 312 312 311 311 311 311 311 310 310 310 310 311
314 315 315 314 315 314 314 315 315 315 315 315 315 314 314 315 314 314 314 314 314 314 314 314 314 314 313 312 312 312 312 312 311 311 311 311 311 310 310 311 310 309
314 315 315 314 315 314 314 315 315 315 315 315 315 315 315 314 314 314 314 314 314 314 314 314 314 314 313 313 313 313 313 312 312 311 311 311 311 310 310 310 310 309
314 314 314 314 314 314 314 314 314 315 315 315 315 315 314 314 314 314 314 314 314 314 314 314 314 314 314 314 314 313 313 313 312 312 312 312 311 311 311 310 309 308
314 314 314 314 314 314 314 314 314 314 314 315 315 314 314 314 314 314 314 314 314 314 314 314 314 314 314 314 314 314 314 313 313 312 312 312 311 311 311 310 309 308
314 314 314 314 314 314 314 314 314 314 314 314 314 314 315 314 314 314 314 314 314 314 314 314 314 314 314 314 314 314 314 313 313 312 312 312 311 312 311 310 310 309
314 314 314 314 314 314 314 314 314 314 314 314 314 314 314 314 314 314 314 315 314 314 314 314 314 314 314 314 313 313 313 313 313 312 312 312 311 311 310 310 309 309
314 314 314 314 314 314 314 314 314 314 314 314 314 314 314 314 314 314 314 314 314 314 314 314 314 313 313 313 313 313 313 312 312 312 311 311 311 310 310 309 308 308
313 314 314 314 314 314 314 314 314 314 314 314 314 314 314 314 314 314 314 314 314 313 314 313 313 313 313 312 312 312 312 312 312 311 311 311 310 310 310 309 308 308
311 312 313 313 313 313 313 313 313 313 313 314 314 314 314 314 314 314 314 314 314 314 314 313 313 313 313 312 312 311 311 311 311 311 311 310 310 309 309 309 308 307
309 310 310 311 312 312 312 312 312 313 313 313 313 313 313 313 314 314 314 313 314 314 314 314 314 313 313 312 312 311 311 310 311 311 310 309 309 309 308 308 308 307
308 309 309 309 310 310 311 311 311 312 312 311 312 312 312 313 313 313 313 313 313 313 313 313 313 313 313 313 312 311 310 310 310 310 310 309 309 308 308 308 307 307
307 308 308 308 309 309 309 310 310 311 311 311 311 311 311 312 312 312 313 313 313 313 313 313 313 312 313 312 312 311 310 310 310 310 309 309 308 308 308 307 307 307
306 306 306 307 308 308 309 309 310 310 311 311 311 311 311 312 312 312 312 312 313 313 313 313 312 312 311 311 311 310 309 309 309 309 309 308 308 308 308 307 306 306
304 304 305 305 306 307 307 308 308 309 310 310 311 311 311 311 311 311 311 311 312 312 312 312 312 311 311 310 310 309 309 309 309 309 308 308 308 307 307 307 305 305
303 303 303 304 304 304 305 306 307 307 308 309 310 310 311 311 311 311 311 311 311 311 311 312 312 311 310 310 309 309 308 308 308 308 308 307 307 306 305 305 303 303
302 302 302 302 303 303 303 304 305 305 306 307 308 309 309 310 310 310 310 310 310 310 311 311 311 311 310 309 309 308 308 307 307 307 307 306 306 304 304 303 302 301
302 302 302 302 302 303 303 303 304 304 305 306 306 307 308 309 309 310 310 310 310 309 310 310 310 310 309 309 308 307 307 306 306 306 306 305 304 303 303 302 301 300
301 301 302 302 302 302 303 303 304 304 304 305 305 306 306 307 308 309 309 310 310 309 309 309 309 308 307 307 307 307 306 306 306 305 305 304 303 302 302 301 301 300
300 300 301 301 301 302 302 303 303 304 305 305 305 305 306 306 307 307 308 308 309 308 308 308 308 307 306 305 305 305 305 305 305 304 304 303 302 301 301 300 300 299
300 299 299 300 300 300 301 302 303 303 304 305 305 305 305 306 306 307 307 307 307 307 307 307 307 306 305 304 304 304 303 304 304 303 303 302 301 301 300 300 299 299
299 299 299 299 299 299 300 301 302 303 303 304 304 304 305 305 306 306 307 307 306 306 305 305 305 305 304 303 303 302 302 302 302 301 301 301 300 300 299 298 299 299
298 298 298 299 299 299 300 301 302 303 304 304 304 304 304 305 306 306 306 306 305 305 304 303 303 303 303 302 302 301 301 300 300 300 300 299 299 299 298 298 298 299
Wind_Speed
16 17 18 19 20 20 20 21 21 22 22 23 23 23 23 22 22 22 23 23 24 25 26 26 27 28 29 30 32 35 38 40 41 43 44 46 48 48 50 51 51 51
15 16 16 17 18 19 20 21 21 22 22 23 23 23 23 22 22 22 23 23 24 25 26 27 27 28 29 30 31 33 35 37 39 40 42 44 46 46 48 48 48 49
16 16 16 16 17 18 19 21 21 22 23 23 24 24 23 23 23 24 24 25 26 26 27 27 28 28 29 30 31 33 34 36 37 38 39 41 42 45 47 47 48 49
17 18 19 19 19 19 19 21 21 22 23 24 25 25 25 25 26 26 26 27 28 28 28 28 29 29 30 30 31 32 33 35 36 36 38 40 40 42 44 45 47 48
21 21 22 22 22 22 21 21 21 22 23 25 25 26 27 28 28 28 29 29 30 30 30 30 31 30 31 31 32 33 34 35 35 36 38 39 40 41 42 43 45 46
23 24 24 24 23 23 22 22 22 23 24 25 26 26 27 29 30 31 32 32 32 32 32 32 32 33 33 33 33 34 35 36 36 36 38 39 38 38 38 39 41 43
23 24 24 24 23 23 23 22 22 23 25 26 27 27 27 29 30 31 31 32 33 34 34 35 35 35 35 35 36 37 37 37 38 38 39 39 38 37 37 37 38 39
21 22 23 23 23 23 23 23 23 24 25 27 29 28 29 29 30 30 30 31 33 34 34 35 36 36 37 38 39 40 40 40 40 39 40 40 39 38 38 37 37 38
20 20 21 22 23 23 24 24 24 25 25 27 28 28 29 30 30 31 31 32 33 34 35 35 36 36 37 38 40 40 42 42 42 41 41 41 40 39 38 37 38 39
20 20 21 21 22 23 23 24 25 25 26 27 28 28 29 29 30 31 32 33 35 35 36 36 37 37 38 39 40 40 42 43 43 42 42 42 41 40 39 38 38 40
20 20 21 22 23 24 24 25 26 26 27 28 28 29 30 30 31 32 33 34 35 36 36 37 38 39 40 40 40 40 42 43 42 42 42 42 42 41 40 38 39 40
22 22 23 24 25 26 27 27 28 29 29 30 31 32 32 33 33 34 35 36 37 38 38 39 39 40 41 41 41 41 42 43 42 42 42 42 42 42 40 39 39 40
26 26 26 27 27 28 29 29 30 31 32 32 33 34 35 35 35 35 36 37 39 40 41 41 41 41 41 41 41 41 42 43 43 43 42 41 41 41 40 39 39 40
29 29 29 29 30 30 31 31 32 33 33 33 34 34 35 35 36 36 37 37 38 39 41 42 43 43 43 41 40 40 41 41 42 42 42 41 40 40 40 39 39 39
30 31 31 31 31 31 32 33 33 34 35 35 34 34 35 35 36 37 37 38 38 38 39 40 42 43 43 41 39 38 38 39 40 41 41 41 40 40 39 39 39 39
33 33 34 34 34 33 33 34 34 34 35 35 35 35 36 36 37 37 38 38 39 39 39 39 40 40 40 39 38 37 37 37 38 40 40 40 39 39 40 39 39 39
35 37 37 38 38 38 38 38 38 37 37 36 36 36 36 37 37 38 38 39 39 40 40 40 40 39 37 37 36 35 35 36 37 38 39 39 39 40 40 40 39 40
36 37 39 40 41 42 42 42 42 42 42 41 40 40 39 39 39 39 39 39 40 41 42 42 41 39 37 36 34 33 33 34 36 38 38 39 39 40 40 40 40 41
36 37 38 39 41 42 43 44 44 45 45 45 45 44 43 43 43 43 42 42 41 41 42 43 43 41 39 36 35 33 32 33 35 37 38 39 39 39 39 39 39 40
36 37 37 39 40 41 42 43 44 45 46 46 46 46 46 46 46 46 46 45 44 43 43 43 42 42 41 38 36 34 33 32 34 36 37 38 38 38 38 38 38 39
35 36 37 38 39 39 40 41 43 44 45 46 47 48 48 48 47 47 47 47 47 47 46 45 42 39 39 39 37 35 34 33 34 36 37 38 39 38 37 38 38 38
34 35 36 37 38 39 40 40 42 43 44 46 47 48 49 49 49 49 48 48 48 48 48 49 45 39 37 37 36 35 34 34 35 36 37 39 39 38 38 39 38 36
32 34 35 36 37 38 39 40 41 42 43 45 46 48 49 49 50 51 50 49 48 48 48 49 48 43 38 36 35 33 33 35 36 36 38 39 40 39 39 38 36 34
32 34 35 36 37 37 38 40 40 41 43 44 46 48 49 49 50 50 50 49 48 48 47 47 49 45 39 36 35 33 33 34 36 37 38 39 39 39 37 35 34 33
34 35 36 36 37 37 38 39 40 41 42 44 46 47 49 49 49 50 50 50 48 47 46 45 46 45 40 36 34 33 32 33 34 36 37 38 38 38 36 34 34 33
34 35 36 37 38 39 39 40 40 41 42 43 45 46 48 49 49 49 50 51 49 47 46 44 43 42 39 35 32 32 31 31 32 34 35 36 36 36 35 35 34 33
Wind_Direction
328 317 310 305 301 298 296 293 291 288 284 282 279 276 275 274 273 271 270 270 270 269 267 267 267 266 265 264 261 260 260 261 263 264 265 267 267 267 268 269 269 270
349 338 327 318 311 305 300 295 290 285 281 279 277 275 274 273 272 270 269 269 269 268 268 267 266 265 265 264 263 262 261 261 262 262 262 263 264 265 266 268 269 270
349 343 336 328 319 310 304 298 291 286 283 281 279 278 278 276 274 273 272 271 270 269 270 270 269 268 267 267 266 265 265 264 264 263 262 262 262 262 264 265 267 268
341 338 336 333 325 317 309 302 296 292 287 285 285 285 284 281 279 277 275 274 273 273 274 274 273 273 272 271 270 269 269 269 269 268 267 268 267 267 267 267 266 266
332 332 331 330 328 325 317 308 301 295 290 288 289 288 287 286 284 282 279 277 277 277 277 277 277 276 275 274 273 273 273 272 272 271 271 272 272 271 271 269 268 266
325 325 324 323 323 324 322 317 308 298 293 290 290 289 288 288 287 287 286 285 285 284 283 282 281 280 279 278 277 276 276 275 274 273 272 274 275 275 276 274 271 270
320 319 318 317 318 318 318 319 315 307 300 294 290 290 289 288 288 288 289 290 290 290 290 289 287 286 285 284 282 280 279 278 277 276 275 277 278 279 280 279 277 274
323 319 316 314 315 315 314 314 313 310 306 301 297 295 292 290 289 289 289 290 289 289 290 289 288 288 287 286 285 284 283 281 280 278 278 279 280 281 282 281 279 277
331 325 321 317 316 314 313 312 310 308 307 304 302 301 297 293 291 289 288 288 287 286 287 286 286 285 285 284 284 284 284 283 282 280 279 279 280 281 282 281 279 278
331 327 325 324 322 321 320 318 316 313 309 305 302 300 297 294 291 289 287 286 284 284 283 282 282 282 281 280 280 281 281 281 281 280 280 280 280 280 281 281 279 278
332 328 326 326 326 327 326 325 323 321 317 313 308 303 299 296 293 290 288 285 284 283 282 280 280 279 278 278 278 277 277 277 277 278 278 279 279 279 279 280 280 280
331 328 325 324 324 324 324 324 324 322 321 320 317 313 310 306 301 296 293 291 289 287 286 284 283 282 280 278 278 277 276 276 275 276 277 278 278 278 278 279 280 281
330 326 323 321 320 320 320 320 320 320 319 319 319 318 316 313 309 305 301 297 294 293 291 290 289 287 285 283 281 280 278 278 277 276 276 277 278 278 278 278 279 282
332 329 325 322 320 318 317 316 316 316 316 316 316 316 315 314 312 309 306 303 300 297 294 293 291 290 288 287 284 282 280 279 278 277 277 277 277 278 278 278 280 281
334 333 331 328 326 323 320 317 315 314 314 313 313 312 311 311 309 307 307 306 305 302 298 295 292 291 291 290 287 283 280 279 278 277 277 277 277 277 277 277 278 280
334 333 333 333 332 330 328 325 322 320 318 316 313 310 308 307 306 306 306 306 305 304 302 299 296 295 294 293 290 286 281 278 277 275 275 276 276 276 276 277 277 279
332 331 331 332 332 332 331 331 329 328 326 323 319 316 311 308 306 306 306 306 305 304 302 301 300 299 298 296 293 288 283 279 277 276 275 275 275 275 275 276 277 277
328 327 328 328 328 329 329 329 329 328 328 326 324 322 319 315 312 310 308 307 307 305 304 303 301 300 299 297 293 288 283 280 278 277 276 275 274 274 275 276 276 277
324 322 323 323 323 323 324 324 325 325 325 325 323 322 320 318 316 314 312 310 308 307 306 305 304 302 300 296 292 288 283 279 278 276 275 274 274 273 273 274 275 276
323 321 320 320 319 319 319 319 319 320 320 321 320 319 318 317 316 315 313 312 311 308 306 305 304 304 301 298 294 289 284 279 277 275 273 272 272 272 273 273 273 274
323 322 321 320 319 318 317 317 317 316 317 317 316 316 316 315 315 314 312 311 311 310 307 305 304 303 301 299 295 291 286 281 276 273 271 271 271 271 271 271 272 274
323 322 321 321 320 319 318 318 317 317 317 317 315 314 314 314 313 313 312 311 310 310 308 306 304 303 300 297 294 290 285 280 276 272 270 270 271 270 270 271 272 271
322 321 320 320 320 320 319 319 318 318 318 317 316 314 313 314 313 312 311 311 310 310 308 306 304 303 301 297 293 288 283 278 275 272 271 271 271 271 272 272 271 269
320 319 319 318 318 317 317 317 317 317 317 317 316 314 313 313 313 312 311 310 310 310 309 307 304 304 303 299 294 289 283 278 275 273 272 271 271 272 273 271 269 267
318 317 317 316 315 315 314 314 313 314 314 315 315 314 313 313 313 313 311 310 310 309 309 307 305 304 303 300 295 290 283 279 276 274 272 272 271 271 272 271 268 265
319 319 318 317 316 315 314 313 312 311 311 311 312 313 313 312 312 312 312 311 310 309 307 307 306 305 303 300 295 290 284 279 275 272 271 272 272 272 271 270 269 266